Location: Marcé
(47.5801°N, 0.3280°W)
Time: 08:55:18
(UTC+01:00)

Vanguard 1 - Pass Details

Date: 06 December 2021
Orbit: 652 x 3830 km, 34.2° (Epoch: 16 January)

Event Time Altitude Azimuth Distance (km) Brightness Sun altitude
Exits shadow 07:08:03 11° 268° (W) 6,375 13.6 -13.9°
Maximum altitude 07:20:26 23° 228° (SW) 4,581 13.2 -11.9°
Drops below altitude 10° 07:30:05 10° 183° (S) 4,591 13.7 -10.4°
Sets 07:34:04 0° 168° (SSE) 5,117 14.3 -9.8°
